• In Deutschland
  • Länderverzeichnis
  • Für 7 Tage
  • Wassertemperatur
  • Satellitenkarten
  • Wetterkarte
  • Widgets
  • user-avatar
    Anmelden

    Stündliche Wetter São Paulo

    Heute, 21 Mai, Montag

    Zeit Temperatur Niederschläge Wind Luftdruck Luftfeuchtigkeit
    00:00 +12°C° 0 mm 2 m/S 698 mmHg 73%
    01:00 +10°C° 0 mm 2 m/S 698 mmHg 74%
    02:00 +10°C° 0 mm 2 m/S 698 mmHg 75%
    03:00 +11°C° 0 mm 1 m/S 698 mmHg 76%
    04:00 +10°C° 0 mm 1 m/S 698 mmHg 77%
    05:00 +10°C° 0 mm 1 m/S 698 mmHg 77%
    06:00 +10°C° 0 mm 1 m/S 698 mmHg 77%
    07:00 +12°C° 0 mm 1 m/S 699 mmHg 70%
    08:00 +14°C° 0 mm 1 m/S 700 mmHg 62%
    09:00 +16°C° 0 mm 1 m/S 701 mmHg 53%
    10:00 +19°C° 0 mm 1 m/S 701 mmHg 48%
    11:00 +20°C° 0 mm 1 m/S 701 mmHg 42%
    12:00 +22°C° 0 mm 1 m/S 701 mmHg 37%
    13:00 +22°C° 0 mm 1 m/S 701 mmHg 38%
    14:00 +22°C° 0 mm 1 m/S 700 mmHg 38%
    15:00 +23°C° 0 mm 2 m/S 700 mmHg 39%
    16:00 +21°C° 0 mm 1 m/S 700 mmHg 48%
    17:00 +19°C° 0 mm 1 m/S 700 mmHg 57%
    18:00 +16°C° 0 mm 1 m/S 699 mmHg 66%
    19:00 +15°C° 0 mm 1 m/S 700 mmHg 69%
    20:00 +14°C° 0 mm 1 m/S 700 mmHg 72%
    21:00 +13°C° 0 mm 0 m/S 700 mmHg 75%
    22:00 +12°C° 0 mm 0 m/S 700 mmHg 75%
    23:00 +12°C° 0 mm 0 m/S 700 mmHg 75%

    Morgen, 22 Mai, Dienstag

    Zeit Temperatur Niederschläge Wind Luftdruck Luftfeuchtigkeit
    00:00 +13°C° 0 mm 1 m/S 700 mmHg 74%
    01:00 +13°C° 0 mm 1 m/S 700 mmHg 74%
    02:00 +12°C° 0 mm 1 m/S 700 mmHg 73%
    03:00 +12°C° 0 mm 1 m/S 700 mmHg 73%
    04:00 +12°C° 0 mm 1 m/S 700 mmHg 72%
    05:00 +12°C° 0 mm 1 m/S 700 mmHg 72%
    06:00 +11°C° 0 mm 1 m/S 699 mmHg 71%
    07:00 +14°C° 0 mm 1 m/S 700 mmHg 65%
    08:00 +16°C° 0 mm 1 m/S 701 mmHg 58%
    09:00 +19°C° 0 mm 1 m/S 701 mmHg 51%
    10:00 +20°C° 0 mm 1 m/S 702 mmHg 46%
    11:00 +22°C° 0 mm 1 m/S 702 mmHg 40%
    12:00 +24°C° 0 mm 1 m/S 702 mmHg 35%
    13:00 +24°C° 0 mm 2 m/S 701 mmHg 36%
    14:00 +24°C° 0 mm 2 m/S 701 mmHg 38%
    15:00 +24°C° 0 mm 2 m/S 700 mmHg 39%
    16:00 +21°C° 0 mm 2 m/S 700 mmHg 48%
    17:00 +19°C° 0 mm 2 m/S 700 mmHg 57%
    18:00 +18°C° 0 mm 1 m/S 700 mmHg 66%
    19:00 +16°C° 0 mm 1 m/S 700 mmHg 69%
    20:00 +16°C° 0 mm 1 m/S 701 mmHg 71%
    21:00 +15°C° 0 mm 1 m/S 701 mmHg 73%
    22:00 +15°C° 0 mm 1 m/S 701 mmHg 73%
    23:00 +14°C° 0 mm 1 m/S 701 mmHg 73%

    übermorgen, 23 Mai, Mittwoch

    Zeit Temperatur Niederschläge Wind Luftdruck Luftfeuchtigkeit
    00:00 +14°C° 0 mm 1 m/S 701 mmHg 73%
    01:00 +14°C° 0 mm 1 m/S 701 mmHg 73%
    02:00 +14°C° 0 mm 1 m/S 701 mmHg 73%
    03:00 +13°C° 0 mm 1 m/S 700 mmHg 74%
    04:00 +13°C° 0 mm 1 m/S 701 mmHg 74%
    05:00 +13°C° 0 mm 1 m/S 701 mmHg 74%
    06:00 +13°C° 0 mm 1 m/S 701 mmHg 75%
    07:00 +14°C° 0 mm 1 m/S 702 mmHg 69%
    08:00 +16°C° 0 mm 1 m/S 703 mmHg 63%
    09:00 +19°C° 0 mm 1 m/S 704 mmHg 57%
    10:00 +20°C° 0 mm 1 m/S 704 mmHg 54%
    11:00 +22°C° 0 mm 1 m/S 704 mmHg 51%
    12:00 +23°C° 0 mm 2 m/S 704 mmHg 47%
    13:00 +23°C° 0 mm 2 m/S 704 mmHg 49%
    14:00 +23°C° 0 mm 2 m/S 703 mmHg 51%
    15:00 +23°C° 0 mm 2 m/S 703 mmHg 52%
    16:00 +20°C° 0 mm 2 m/S 703 mmHg 62%
    17:00 +19°C° 0 mm 2 m/S 703 mmHg 71%
    18:00 +17°C° 0 mm 3 m/S 703 mmHg 81%
    19:00 +17°C° 0 mm 3 m/S 703 mmHg 83%
    20:00 +16°C° 0 mm 3 m/S 703 mmHg 85%
    21:00 +16°C° 0 mm 3 m/S 704 mmHg 87%
    22:00 +16°C° 0 mm 2 m/S 704 mmHg 87%
    23:00 +16°C° 0 mm 2 m/S 704 mmHg 87%

    24 Mai, Donnerstag

    Zeit Temperatur Niederschläge Wind Luftdruck Luftfeuchtigkeit
    00:00 +16°C° 0 mm 2 m/S 704 mmHg 87%
    01:00 +15°C° 0 mm 2 m/S 703 mmHg 87%
    02:00 +15°C° 0 mm 2 m/S 703 mmHg 88%
    03:00 +15°C° 0 mm 2 m/S 703 mmHg 88%
    04:00 +15°C° 0 mm 2 m/S 703 mmHg 89%
    05:00 +15°C° 0 mm 2 m/S 703 mmHg 90%
    06:00 +14°C° 0 mm 1 m/S 703 mmHg 91%
    07:00 +15°C° 0 mm 1 m/S 703 mmHg 86%
    08:00 +16°C° 0 mm 2 m/S 704 mmHg 81%
    09:00 +18°C° 0 mm 2 m/S 705 mmHg 77%
    10:00 +20°C° 0 mm 1 m/S 705 mmHg 69%
    11:00 +22°C° 0 mm 1 m/S 705 mmHg 61%
    12:00 +24°C° 0 mm 1 m/S 705 mmHg 52%
    13:00 +24°C° 0 mm 1 m/S 704 mmHg 55%
    14:00 +24°C° 0 mm 2 m/S 704 mmHg 57%
    15:00 +23°C° 0 mm 2 m/S 703 mmHg 59%
    16:00 +21°C° 0,1 mm 2 m/S 703 mmHg 67%
    17:00 +19°C° 0,1 mm 3 m/S 703 mmHg 76%
    18:00 +18°C° 0,1 mm 3 m/S 703 mmHg 84%
    19:00 +18°C° 0,1 mm 3 m/S 704 mmHg 85%
    20:00 +17°C° 0,1 mm 3 m/S 704 mmHg 86%
    21:00 +17°C° 0,1 mm 3 m/S 704 mmHg 87%
    22:00 +17°C° 0,1 mm 3 m/S 704 mmHg 87%
    23:00 +17°C° 0,1 mm 3 m/S 704 mmHg 88%

    25 Mai, Freitag

    Zeit Temperatur Niederschläge Wind Luftdruck Luftfeuchtigkeit
    00:00 +17°C° 0,1 mm 3 m/S 704 mmHg 88%
    01:00 +16°C° 0,1 mm 3 m/S 704 mmHg 89%
    02:00 +16°C° 0,1 mm 3 m/S 703 mmHg 89%
    03:00 +16°C° 0,1 mm 3 m/S 703 mmHg 90%
    04:00 +16°C° 0,1 mm 2 m/S 703 mmHg 90%
    05:00 +16°C° 0,1 mm 2 m/S 703 mmHg 90%
    06:00 +16°C° 0,1 mm 2 m/S 704 mmHg 90%
    07:00 +16°C° 0 mm 3 m/S 704 mmHg 87%
    08:00 +17°C° 0 mm 3 m/S 705 mmHg 84%
    09:00 +18°C° 0 mm 3 m/S 705 mmHg 81%
    10:00 +19°C° 0,1 mm 3 m/S 705 mmHg 77%
    11:00 +20°C° 0,1 mm 3 m/S 705 mmHg 73%
    12:00 +20°C° 0,1 mm 3 m/S 705 mmHg 68%
    13:00 +20°C° 0,1 mm 3 m/S 704 mmHg 69%
    14:00 +20°C° 0,1 mm 3 m/S 704 mmHg 70%
    15:00 +20°C° 0,1 mm 3 m/S 703 mmHg 71%
    16:00 +19°C° 0 mm 3 m/S 703 mmHg 76%
    17:00 +18°C° 0 mm 3 m/S 703 mmHg 81%
    18:00 +17°C° 0 mm 3 m/S 703 mmHg 86%
    19:00 +17°C° 0 mm 3 m/S 703 mmHg 86%
    20:00 +17°C° 0 mm 3 m/S 704 mmHg 87%
    21:00 +16°C° 0 mm 3 m/S 704 mmHg 87%
    22:00 +16°C° 0 mm 3 m/S 704 mmHg 87%
    23:00 +16°C° 0 mm 2 m/S 703 mmHg 88%

    26 Mai, Samstag

    Zeit Temperatur Niederschläge Wind Luftdruck Luftfeuchtigkeit
    00:00 +16°C° 0 mm 2 m/S 703 mmHg 88%
    01:00 +15°C° 0 mm 2 m/S 703 mmHg 89%
    02:00 +15°C° 0 mm 2 m/S 703 mmHg 90%
    03:00 +15°C° 0 mm 2 m/S 703 mmHg 90%
    04:00 +15°C° 0 mm 2 m/S 703 mmHg 90%
    05:00 +15°C° 0 mm 2 m/S 703 mmHg 89%
    06:00 +15°C° 0 mm 2 m/S 703 mmHg 89%
    07:00 +16°C° 0 mm 2 m/S 703 mmHg 84%
    08:00 +17°C° 0 mm 2 m/S 704 mmHg 79%
    09:00 +18°C° 0 mm 2 m/S 704 mmHg 74%
    10:00 +20°C° 0 mm 2 m/S 704 mmHg 66%
    11:00 +23°C° 0 mm 1 m/S 704 mmHg 58%
    12:00 +24°C° 0 mm 1 m/S 704 mmHg 51%
    13:00 +24°C° 0,1 mm 1 m/S 704 mmHg 53%
    14:00 +24°C° 0,1 mm 1 m/S 703 mmHg 55%
    15:00 +24°C° 0,1 mm 2 m/S 702 mmHg 57%
    16:00 +21°C° 0,2 mm 2 m/S 702 mmHg 65%
    17:00 +19°C° 0,2 mm 2 m/S 702 mmHg 74%
    18:00 +18°C° 0,2 mm 2 m/S 702 mmHg 82%
    19:00 +17°C° 0 mm 2 m/S 702 mmHg 84%
    20:00 +17°C° 0 mm 2 m/S 703 mmHg 87%
    21:00 +16°C° 0 mm 2 m/S 703 mmHg 90%
    22:00 +16°C° 0 mm 2 m/S 703 mmHg 90%
    23:00 +16°C° 0 mm 1 m/S 703 mmHg 91%
    Mehr zeigen